Dover AFB, DE

4:50 PM EDT on August 18, 2017 (GMT -0400)
Dover Air Force Base

Weather History for KDOV - November, 2012

Change the Weather History Date:

Thursday, November 1, 2012

  Actual Average Record
Temperature  
Mean Temperature 46 °F -  
Max Temperature 52 °F 64 °F 85 °F (1950)
Min Temperature 40 °F 44 °F 29 °F (1975)
Degree Days  
Heating Degree Days 20    
Moisture  
Dew Point 38 °F    
Average Humidity 70    
Maximum Humidity 87    
Minimum Humidity 60    
Precipitation  
Precipitation 0.00 in - - ()
Sea Level Pressure  
Sea Level Pressure 29.67 in    
Wind  
Wind Speed 8 mph (WSW)    
Max Wind Speed 14 mph    
Max Gust Speed 20 mph    
Visibility 8 miles    
Events      
Averages and records for this station are not official NWS values.
T = Trace of Precipitation, MM = Missing Value Source: NWS Daily Summary

Daily Weather History Graph

Daily Weather History Graph

Search for Another Location

Airport or City:

Trip Planner

Search our weather history database for the weather conditions in past years. The results will help you decide how hot, cold, wet, or windy it might be!

Date:

Astronomy

Nov. 01, 2012 Rise Set
Actual Time 7:29 AM EDT 6:00 PM EDT
Civil Twilight 7:02 AM EDT 6:28 PM EDT
Nautical Twilight 6:30 AM EDT 6:59 PM EDT
Astronomical Twilight 5:59 AM EDT 7:30 PM EDT
Moon 7:56 PM EDT (11/1) 9:59 AM EDT (11/1)
Length of Visible Light 11h 25m
Length of Day
10h 30m
Waning Gibbous, 93% of the Moon is Illuminated
Nov 1
Waning Gibbous
Nov 6
Last Quarter
Nov 13
New
Nov 20
First Quarter
Nov 28
Full

Hourly Weather History & Observations

Time (EDT) Temp. Windchill Dew Point Humidity Pressure Visibility Wind Dir Wind Speed Gust Speed Precip Events Conditions
12:55 AM 44.2 °F 41.8 °F 40.6 °F 87% 29.63 in 10.0 mi SW 4.6 mph - N/A   Clear
1:55 AM 43.7 °F 39.7 °F 37.8 °F 80% 29.64 in 10.0 mi WSW 6.9 mph - N/A   Clear
2:55 AM 43.3 °F 39.9 °F 36.5 °F 77% 29.64 in 10.0 mi WSW 5.8 mph - N/A   Clear
3:55 AM 41.5 °F 37.8 °F 36.3 °F 82% 29.64 in 10.0 mi SSW 5.8 mph - N/A   Clear
4:55 AM 41.4 °F 38.4 °F 35.6 °F 80% 29.64 in 10.0 mi SW 4.6 mph - N/A   Clear
5:55 AM 40.3 °F 36.3 °F 36.0 °F 85% 29.64 in 10.0 mi SSW 5.8 mph - N/A   Clear
6:55 AM 40.8 °F 36.2 °F 37.0 °F 86% 29.65 in 10.0 mi SSW 6.9 mph - N/A   Mostly Cloudy
7:55 AM 42.1 °F 39.2 °F 36.7 °F 81% 29.66 in 10.0 mi SSW 4.6 mph - N/A   Overcast
8:55 AM 45.1 °F 42.0 °F 38.1 °F 76% 29.67 in 10.0 mi WSW 5.8 mph - N/A   Clear
9:55 AM 48.6 °F - 37.9 °F 67% 29.68 in 10.0 mi West 10.4 mph - N/A   Overcast
10:55 AM 49.5 °F - 38.3 °F 65% 29.68 in 1.2 mi West 8.1 mph - N/A   Haze
10:56 AM 50.0 °F - 37.4 °F 62% 29.68 in 0.8 mi West 10.4 mph - N/A   Haze
10:57 AM 50.0 °F - 39.2 °F 66% 29.68 in 0.5 mi West 9.2 mph - N/A   Haze
11:05 AM 50.0 °F - 39.2 °F 66% 29.68 in 0.8 mi West 12.7 mph - N/A   Haze
11:06 AM 50.0 °F - 39.2 °F 66% 29.68 in 1.0 mi WSW 12.7 mph - N/A   Haze
11:07 AM 50.0 °F - 39.2 °F 66% 29.68 in 1.8 mi WSW 12.7 mph - N/A   Haze
11:08 AM 50.0 °F - 39.2 °F 66% 29.69 in 4.0 mi WSW 12.7 mph 18.4 mph N/A   Haze
11:55 AM 50.9 °F - 39.4 °F 65% 29.68 in 10.0 mi WSW 10.4 mph 19.6 mph N/A   Overcast
12:15 PM 50.0 °F - 39.2 °F 66% 29.68 in 10.0 mi WSW 13.8 mph 18.4 mph N/A   Overcast
12:55 PM 51.3 °F - 39.7 °F 65% 29.66 in 10.0 mi WSW 9.2 mph - N/A   Overcast
1:55 PM 50.7 °F - 39.6 °F 66% 29.65 in 10.0 mi WSW 10.4 mph - N/A   Overcast
2:55 PM 51.3 °F - 38.7 °F 62% 29.65 in 10.0 mi West 12.7 mph - N/A   Overcast
3:55 PM 51.3 °F - 37.9 °F 60% 29.65 in 10.0 mi WSW 13.8 mph - N/A   Overcast
4:55 PM 50.5 °F - 38.1 °F 62% 29.65 in 10.0 mi West 10.4 mph - N/A   Overcast
5:55 PM 49.3 °F - 37.8 °F 65% 29.67 in 10.0 mi West 12.7 mph - N/A   Overcast
6:55 PM 49.1 °F - 37.0 °F 63% 29.68 in 10.0 mi West 10.4 mph - N/A   Overcast
7:55 PM 48.7 °F - 37.2 °F 64% 29.69 in 10.0 mi WSW 8.1 mph - N/A   Overcast
8:55 PM 48.4 °F - 37.8 °F 67% 29.70 in 10.0 mi WSW 10.4 mph - N/A   Overcast
9:55 PM 47.5 °F - 38.7 °F 71% 29.70 in 10.0 mi WSW 6.9 mph - N/A   Overcast
10:55 PM 48.0 °F - 38.3 °F 69% 29.71 in 10.0 mi WSW 8.1 mph - N/A   Overcast
11:55 PM 48.2 °F - 37.4 °F 66% 29.71 in 10.0 mi WSW 8.1 mph - N/A   Overcast